Location: Namasale
(1.5000°N, 32.6167°E)
Time: 17:56:07
(UTC+00:00)

Vanguard 1 Rocket - Pass Details

Date: 24 April 2021
Orbit: 651 x 4225 km, 34.3° (Epoch: 17 May)

Event Time Altitude Azimuth Distance (km) Brightness Sun altitude
Rises 02:26:37 0° 223° (SW) 8,205 - -19.4°
Exits shadow 02:28:55 - 220° (SW) 7,939 11.7 -18.8°
Reaches altitude 10° 02:33:46 10° 213° (SSW) 7,380 11.6 -17.7°
Maximum altitude 02:55:32 32° 157° (SSE) 5,379 11.4 -12.4°
Drops below altitude 10° 03:11:58 10° 101° (E) 5,759 12.7 -8.4°
Sets 03:16:25 0° 91° (E) 6,299 13.6 -7.3°
